User: anonymous   Login
Location: Cronhütte
(48.9135°N, 9.6869°E)
Time: 02:46:10
(UTC+00:00)
Language:

Cosmos 2333 Rocket - Orbit

View from above orbital plane
View from above orbital plane
View from above satellite
View from above satellite

Ground track
Ground track

The orbit data is extracted from the following two-line orbital elements,

1 24298U 96051B   24200.59747126 -.00000133  00000-0 -45120-4 0  9990
2 24298  70.8012   2.4187 0017910 297.2681  62.6614 14.12465197437054
Epoch (UTC): 18 July 2024 14:20:21
Eccentricity: 0.0017910
inclination: 70.8012°
perigee height: 838 km
apogee height: 864 km
right ascension of ascending node: 2.4187°
argument of perigee: 297.2681°
revolutions per day: 14.12465197
mean anomaly at epoch: 62.6614°
orbit number at epoch: 43705

The dashed part of the orbit path shows where the satellite is in the earth's shadow,  

DLR